GSAT0219 (GALILEO 23)

Last updated on Wed Jul 02 2025 00:02:33 GMT+0000 (Coordinated Universal Time)

1 43566U 18060C 25182.14112200 -.00000098 00000+0 00000+0 0 9994 2 43566 57.2704 351.2616 0001744 311.9324 48.0531 1.70476048 43201
UTC large
Height (km)
Speed (km/s)
/
Latitude / Longitude
Inclination (degrees)
Orbital Period (minutes)
Azimuth
Elevation
Range (km)
Doppler Factor

Next 0 passes for location: London (51.5072 / 0.1276)

Sorry there are no passes over London.